Location: Honolulu
(21.3069°N, 157.8583°W)
Time: 19:44:02
(UTC-10:00)

Courier 1B - All Passes

Search period start: 06 March 2026 00:00
Search period end: 16 March 2026 00:00
Orbit: 962 x 1208 km, 28.3° (Epoch: 6 March)

Date Brightness Start Highest point End Pass type
(mag) Time Alt. Az. Time Alt. Az. Time Alt. Az.
6 Mar - 09:03:48 10° SSE 09:05:39 11° SSE 09:07:28 10° SE daylight
6 Mar - 10:53:11 10° SW 10:59:33 40° SSE 11:05:38 10° E daylight
6 Mar - 12:46:50 10° WSW 12:53:30 78° NNW 12:59:59 10° ENE daylight
6 Mar - 14:41:43 10° WNW 14:47:56 46° N 14:54:10 10° ENE daylight
6 Mar - 16:36:16 10° WNW 16:42:34 53° N 16:49:03 10° E daylight
6 Mar - 18:30:16 10° WNW 18:36:50 78° SSW 18:43:46 10° ESE daylight
6 Mar - 20:25:11 10° W 20:30:46 27° SSW 20:36:37 10° SSE visible
7 Mar - 09:59:42 10° SSW 10:05:42 30° SSE 10:11:26 10° E daylight
7 Mar - 11:52:47 10° WSW 11:59:37 85° SSE 12:06:09 10° ENE daylight
7 Mar - 13:47:33 10° W 13:53:55 50° N 14:00:11 10° ENE daylight
7 Mar - 15:42:21 10° WNW 15:48:34 48° N 15:54:51 10° E daylight
7 Mar - 17:36:26 10° WNW 17:42:57 84° NNE 17:49:44 10° ESE daylight
7 Mar - 19:30:54 10° W 19:36:54 36° SSW 19:43:12 10° SE visible
8 Mar - 09:06:28 10° SSW 09:11:50 22° SSE 09:16:57 10° E daylight
8 Mar - 10:58:49 10° WSW 11:05:44 68° SSE 11:12:17 10° ENE daylight
8 Mar - 12:53:21 10° W 12:59:56 57° NNW 13:06:18 10° ENE daylight
8 Mar - 14:48:20 10° WNW 14:54:33 45° N 15:00:44 10° ENE daylight
8 Mar - 16:42:36 10° WNW 16:49:02 69° NNE 16:55:39 10° E daylight
8 Mar - 18:36:48 10° W 18:43:03 48° SSW 18:49:36 10° SE daylight
8 Mar - 20:33:31 10° WSW 20:36:54 14° SSW 20:40:24 10° S visible
9 Mar - 08:13:38 10° S 08:17:54 16° SSE 08:22:02 10° ESE daylight
9 Mar - 10:04:57 10° SW 10:11:51 52° SSE 10:18:20 10° E daylight
9 Mar - 11:59:09 10° W 12:05:57 67° NNW 12:12:28 10° ENE daylight
9 Mar - 13:54:12 10° WNW 14:00:30 45° N 14:06:40 10° ENE daylight
9 Mar - 15:48:43 10° WNW 15:55:06 58° NNE 16:01:32 10° E daylight
9 Mar - 17:42:49 10° WNW 17:49:13 64° SSW 17:55:51 10° SE daylight
9 Mar - 19:38:23 10° WSW 19:43:02 20° SSW 19:47:51 10° SSE visible
10 Mar - 07:21:53 10° SSE 07:23:55 11° SSE 07:25:55 10° SE daylight
10 Mar - 09:11:15 10° SW 09:17:57 40° SSE 09:24:17 10° E daylight
10 Mar - 11:04:56 10° WSW 11:12:00 81° NNW 11:18:39 10° ENE daylight
10 Mar - 13:00:00 10° W 13:06:28 47° N 13:12:42 10° ENE daylight
10 Mar - 14:54:47 10° WNW 15:01:07 51° N 15:07:24 10° E daylight
10 Mar - 16:48:55 10° WNW 16:55:23 82° SSW 17:01:59 10° ESE daylight
10 Mar - 18:43:48 10° W 18:49:11 27° SSW 18:54:47 10° SSE daylight
11 Mar - 08:17:43 10° SSW 08:24:02 30° SSE 08:30:01 10° E daylight
11 Mar - 10:10:49 10° WSW 10:18:03 82° SSE 10:24:50 10° ENE daylight
11 Mar - 12:05:43 10° W 12:12:25 52° N 12:18:49 10° ENE daylight
11 Mar - 14:00:45 10° WNW 14:07:07 47° N 14:13:19 10° ENE daylight
11 Mar - 15:55:01 10° WNW 16:01:31 81° NNE 16:08:03 10° ESE daylight
11 Mar - 17:49:31 10° W 17:55:24 37° SSW 18:01:26 10° SE daylight
12 Mar - 07:24:28 10° SSW 07:30:04 22° SSE 07:35:28 10° E daylight
12 Mar - 09:16:47 10° SW 09:24:06 65° SSE 09:30:57 10° ENE daylight
12 Mar - 11:11:24 10° W 11:18:24 60° NNW 11:24:59 10° ENE daylight
12 Mar - 13:06:36 10° WNW 13:13:04 46° N 13:19:17 10° ENE daylight
12 Mar - 15:01:06 10° WNW 15:07:37 67° NNE 15:14:02 10° E daylight
12 Mar - 16:55:24 10° W 17:01:37 50° SSW 17:07:55 10° SE daylight
12 Mar - 18:52:01 10° WSW 18:55:20 14° SSW 18:58:43 10° S visible
13 Mar - 06:31:40 10° S 06:36:05 16° SSE 06:40:23 10° ESE daylight
13 Mar - 08:22:53 10° SW 08:30:09 51° SSE 08:36:57 10° E daylight
13 Mar - 10:17:06 10° W 10:24:21 71° NNW 10:31:10 10° ENE daylight
13 Mar - 12:12:21 10° WNW 12:18:59 47° N 12:25:18 10° ENE daylight
13 Mar - 14:07:07 10° WNW 14:13:40 57° NNE 14:20:01 10° E daylight
13 Mar - 16:01:22 10° WNW 16:07:49 67° SSW 16:14:15 10° ESE daylight
13 Mar - 17:56:54 10° WSW 18:01:31 21° SSW 18:06:13 10° SSE daylight
14 Mar - 05:40:06 10° SSE 05:42:03 11° SSE 05:43:59 10° SE visible
14 Mar - 07:29:10 10° SW 07:36:10 39° SSE 07:42:49 10° E daylight
14 Mar - 09:22:50 10° WSW 09:30:20 85° NNW 09:37:20 10° ENE daylight
14 Mar - 11:18:01 10° W 11:24:54 50° N 11:31:23 10° ENE daylight
14 Mar - 13:13:03 10° WNW 13:19:39 51° N 13:25:58 10° E daylight
14 Mar - 15:07:22 10° WNW 15:13:59 85° SSW 15:20:28 10° ESE daylight
14 Mar - 17:02:19 10° W 17:07:45 29° SSW 17:13:13 10° SSE daylight
15 Mar - 06:35:40 10° SSW 06:42:11 29° SSE 06:48:27 10° E daylight
15 Mar - 08:28:41 10° WSW 08:36:18 79° SSE 08:43:27 10° ENE daylight
15 Mar - 10:23:38 10° W 10:30:47 55° N 10:37:30 10° ENE daylight
15 Mar - 12:18:53 10° WNW 12:25:35 48° N 12:31:57 10° ENE daylight
15 Mar - 14:13:23 10° WNW 14:20:06 78° NNE 14:26:35 10° ESE daylight
15 Mar - 16:07:59 10° W 16:13:59 39° SSW 16:19:57 10° SE daylight
